(31158) = 1997 WE3 = 1999 FG5

Discovered at Oizumi on 1997-11-23 by T. Kobayashi.

Orbit

Orbit type: Main Belt

Note: WebGL enabled browser required.

epoch2024-03-31.0
epoch JD2460400.5
perihelion date2021-07-20.64061
perihelion JD2459416.14061
argument of perihelion (°)88.19447
ascending node (°)295.41062
inclination (°)0.93742
eccentricity0.0432063
perihelion distance (AU)2.7467514
Tisserand w.r.t. Jupiter3.3
ΔV w.r.t. Earth (km/sec)10.3
semimajor axis (AU)2.8707876
mean anomaly (°)199.46005
mean daily motion (°/day)0.20262930
aphelion distance (AU)2.995
period (years)4.86
P-vector [x]0.91620634
P-vector [y]0.36083048
P-vector [z]0.17426217
Q-vector [x]-0.40043422
Q-vector [y]0.84050704
Q-vector [z]0.36496623
absolute magnitude14.54
phase slope0.15
uncertainty0
referenceMPEC 2024-F50
observations used1765
oppositions22
arc length (days)11434
first opposition used1992
last opposition used2024
residual rms (arc-secs)0.63
perturbers coarse indicatorM-v
perturbers precise indicator003Ek
first observation date used1992-11-28.0
last observation date used2024-03-19.0
computer nameMPCLINUX
JD of orbit computation2456847.692965
perihelion JD uncertainty (days)2.0486E-04
argument of perihelion uncertainty (°)2.9661E-04
ascending node uncertainty (°)2.9381E-04
inclination uncertainty (°)3.6940E-06
eccentricity uncertainty 4.6917E-08
perihelion distance uncertainty (AU)1.3446E-07
Minimum Orbit Intersection Distances (in AU)
for orbit epoch: 2460400.5, reference: E2024-F50
Mercury2.39408
Venus2.02389
Earth1.7497
Mars1.24179
Jupiter2.20541
Saturn6.21058
Uranus15.4707
Neptune27.0771

Observations

1767 total observations over interval: 1992 11 28.29070 – 2024 03 19.632319
These data are available for download (format description).

Date (UT) J2000 RA J2000 Dec Magn Location Ref
1992 11 28.29070 04 20 44.86 +22 36 28.0   691 – Steward Observatory, Kitt Peak-Spacewatch MPS 16380
1992 11 28.31959 04 20 43.00 +22 36 24.3 17.5 V 691 – Steward Observatory, Kitt Peak-Spacewatch MPS 16380
1992 11 28.35101 04 20 41.60 +22 36 23.7   691 – Steward Observatory, Kitt Peak-Spacewatch MPS 16380
1996 10 12.11298 22 12 07.11 -10 03 02.4 19.2 V 691 – Steward Observatory, Kitt Peak-Spacewatch MPS 80960
1996 10 12.13456 22 12 06.90 -10 03 03.7 19.1 V 691 – Steward Observatory, Kitt Peak-Spacewatch MPS 80960
1996 10 12.15596 22 12 06.68 -10 03 04.9 19.2 V 691 – Steward Observatory, Kitt Peak-Spacewatch MPS 80960
1997 11 23.72468 05 33 40.76 +24 13 00.5 18.5   411 – Oizumi MPS 221
1997 11 23.74365 05 33 39.86 +24 12 58.7   411 – Oizumi MPS 221
1997 11 24.58659 05 32 59.45 +24 12 28.1   411 – Oizumi MPS 221
1997 11 24.59928 05 32 58.91 +24 12 27.7   411 – Oizumi MPS 221
1997 11 30.62117 05 27 47.21 +24 08 02.0   411 – Oizumi MPS 221
1997 11 30.63900 05 27 46.27 +24 08 00.9   411 – Oizumi MPS 221
1997 12 04.34030 05 24 20.21 +24 04 37.5 19.6   704 – Lincoln Laboratory ETS, New Mexico MPS 300
1997 12 04.36959 05 24 18.69 +24 04 34.6 19.4   704 – Lincoln Laboratory ETS, New Mexico MPS 300
1997 12 04.38691 05 24 17.73 +24 04 32.1 19.4   704 – Lincoln Laboratory ETS, New Mexico MPS 300
1997 12 04.40379 05 24 16.81 +24 04 31.6 19.7   704 – Lincoln Laboratory ETS, New Mexico MPS 300
1997 12 05.58509 05 23 09.68 +24 03 19.5   411 – Oizumi MPS 221
1997 12 05.60229 05 23 08.66 +24 03 19.8   411 – Oizumi MPS 221
1997 12 21.55546 05 07 52.42 +23 42 42.4   411 – Oizumi MPS 300
1997 12 21.56871 05 07 51.68 +23 42 42.6   411 – Oizumi MPS 300
1999 03 18.24743 11 20 44.51 +02 57 30.9 18.6 V 691 – Steward Observatory, Kitt Peak-Spacewatch MPS 4233
1999 03 18.28404 11 20 42.74 +02 57 41.5 18.9 V 691 – Steward Observatory, Kitt Peak-Spacewatch MPS 4233
1999 03 18.31108 11 20 41.42 +02 57 49.9 18.8 V 691 – Steward Observatory, Kitt Peak-Spacewatch MPS 4233
1999 03 19.22080 11 19 58.57 +03 02 17.9 18.7 V 691 – Steward Observatory, Kitt Peak-Spacewatch MPS 4233
1999 03 19.24192 11 19 57.55 +03 02 24.3 18.7 V 691 – Steward Observatory, Kitt Peak-Spacewatch MPS 4233
1999 03 19.26359 11 19 56.50 +03 02 30.7 18.7 V 691 – Steward Observatory, Kitt Peak-Spacewatch MPS 4233
2001 07 08.40191 23 47 32.42 -00 32 15.8 19.6   644 – Palomar Mountain/NEAT MPS 32193
2001 07 08.41220 23 47 32.63 -00 32 13.8 19.8   644 – Palomar Mountain/NEAT MPS 32193
2001 07 08.42241 23 47 32.85 -00 32 12.3 19.6   644 – Palomar Mountain/NEAT MPS 32193
2001 08 16.33150 23 46 19.89 -00 20 13.9 19.0   704 – Lincoln Laboratory ETS, New Mexico MPS 32734
2001 08 16.34352 23 46 19.53 -00 20 16.2 19.6   704 – Lincoln Laboratory ETS, New Mexico MPS 32734
2001 08 16.35553 23 46 19.14 -00 20 17.7 19.5   704 – Lincoln Laboratory ETS, New Mexico MPS 32734
2001 08 16.36758 23 46 18.80 -00 20 19.6 19.6   704 – Lincoln Laboratory ETS, New Mexico MPS 32734
2001 08 16.37964 23 46 18.43 -00 20 22.3 19.5   704 – Lincoln Laboratory ETS, New Mexico MPS 32734
2001 08 20.33267 23 44 20.10 -00 31 16.9 18.6   704 – Lincoln Laboratory ETS, New Mexico MPS 33129
2001 08 20.35754 23 44 19.19 -00 31 21.8 19.1   704 – Lincoln Laboratory ETS, New Mexico MPS 33129
2001 08 20.36999 23 44 18.85 -00 31 24.5 19.0   704 – Lincoln Laboratory ETS, New Mexico MPS 33129
2001 08 20.38247 23 44 18.39 -00 31 26.9 18.9   704 – Lincoln Laboratory ETS, New Mexico MPS 33129
2001 08 24.34577 23 42 02.00 -00 44 23.4 19.2   704 – Lincoln Laboratory ETS, New Mexico MPS 33129
2001 08 24.35887 23 42 01.42 -00 44 25.9 19.3   704 – Lincoln Laboratory ETS, New Mexico MPS 33129
2001 08 24.37197 23 42 00.98 -00 44 29.2 19.1   704 – Lincoln Laboratory ETS, New Mexico MPS 33129
2001 08 24.38509 23 42 00.50 -00 44 31.5 19.4   704 – Lincoln Laboratory ETS, New Mexico MPS 33129
2001 08 24.39822 23 41 59.99 -00 44 34.5 19.3   704 – Lincoln Laboratory ETS, New Mexico MPS 33129
2001 09 07.20191 23 32 19.38 -01 42 02.7 18.1   704 – Lincoln Laboratory ETS, New Mexico MPS 33993
2001 09 07.21575 23 32 18.76 -01 42 06.7 18.3   704 – Lincoln Laboratory ETS, New Mexico MPS 33993
2001 09 07.22957 23 32 18.02 -01 42 10.4 18.5   704 – Lincoln Laboratory ETS, New Mexico MPS 33993
2001 09 07.24344 23 32 17.41 -01 42 14.1 18.5   704 – Lincoln Laboratory ETS, New Mexico MPS 33993
2001 09 07.25733 23 32 16.73 -01 42 18.0 18.6   704 – Lincoln Laboratory ETS, New Mexico MPS 33993
2001 09 07.38871 23 32 10.46 -01 42 54.5 18.1 R 699 – Lowell Observatory-LONEOS MPS 33993
2001 09 07.40135 23 32 09.89 -01 42 57.9   699 – Lowell Observatory-LONEOS MPS 33993
2001 09 07.41383 23 32 09.26 -01 43 02.4   699 – Lowell Observatory-LONEOS MPS 33993
2001 09 07.42629 23 32 08.72 -01 43 05.0   699 – Lowell Observatory-LONEOS MPS 33993
2001 09 08.25817 23 31 30.25 -01 47 00.9 18.0   704 – Lincoln Laboratory ETS, New Mexico MPS 33993
2001 09 08.27195 23 31 29.61 -01 47 04.6 18.3   704 – Lincoln Laboratory ETS, New Mexico MPS 33993
2001 09 08.28593 23 31 28.92 -01 47 08.2 18.3   704 – Lincoln Laboratory ETS, New Mexico MPS 33993
2001 09 08.29972 23 31 28.27 -01 47 11.7 18.6   704 – Lincoln Laboratory ETS, New Mexico MPS 33993
2001 09 08.31351 23 31 27.59 -01 47 16.1 18.1   704 – Lincoln Laboratory ETS, New Mexico MPS 33993
2001 09 10.25317 23 29 56.67 -01 56 29.9 18.0   704 – Lincoln Laboratory ETS, New Mexico MPS 33993
2001 09 10.26742 23 29 55.99 -01 56 34.1 18.3   704 – Lincoln Laboratory ETS, New Mexico MPS 33993
2001 09 10.28134 23 29 55.29 -01 56 37.9 18.3   704 – Lincoln Laboratory ETS, New Mexico MPS 33993
2001 09 10.29525 23 29 54.60 -01 56 42.2 18.4   704 – Lincoln Laboratory ETS, New Mexico MPS 33993
2001 09 10.30918 23 29 53.94 -01 56 46.2 18.3   704 – Lincoln Laboratory ETS, New Mexico MPS 33993
2001 09 11.27127 23 29 08.55 -02 01 24.6 18.1   704 – Lincoln Laboratory ETS, New Mexico MPS 33993
2001 09 11.28636 23 29 07.80 -02 01 28.8 18.4   704 – Lincoln Laboratory ETS, New Mexico MPS 33993
2001 09 11.30154 23 29 07.07 -02 01 33.2 18.5   704 – Lincoln Laboratory ETS, New Mexico MPS 33993
2001 09 11.31662 23 29 06.32 -02 01 37.5 18.4   704 – Lincoln Laboratory ETS, New Mexico MPS 33993
2001 09 11.33181 23 29 05.59 -02 01 42.4 18.5   704 – Lincoln Laboratory ETS, New Mexico MPS 33993
2001 09 12.25772 23 28 21.82 -02 06 11.6 17.9   704 – Lincoln Laboratory ETS, New Mexico MPS 33993
2001 09 12.27199 23 28 21.12 -02 06 15.6 18.2   704 – Lincoln Laboratory ETS, New Mexico MPS 33993
2001 09 12.28719 23 28 20.38 -02 06 20.0 18.5   704 – Lincoln Laboratory ETS, New Mexico MPS 33993
2001 09 12.30172 23 28 19.66 -02 06 24.0 18.8   704 – Lincoln Laboratory ETS, New Mexico MPS 33993
2001 09 12.31665 23 28 18.91 -02 06 29.0 18.3   704 – Lincoln Laboratory ETS, New Mexico MPS 33993
2001 09 16.31106 23 25 09.00 -02 25 59.5 18.6   704 – Lincoln Laboratory ETS, New Mexico MPS 35380
2001 09 16.32795 23 25 08.15 -02 26 05.0 18.6   704 – Lincoln Laboratory ETS, New Mexico MPS 35380
2001 09 16.34351 23 25 07.41 -02 26 09.5 18.7   704 – Lincoln Laboratory ETS, New Mexico MPS 35380
2001 09 19.16160 23 22 54.66 -02 39 54.8 17.9 R 699 – Lowell Observatory-LONEOS MPS 35380
2001 09 19.18034 23 22 53.80 -02 40 00.2   699 – Lowell Observatory-LONEOS MPS 35380
2001 09 19.19911 23 22 52.87 -02 40 05.3   699 – Lowell Observatory-LONEOS MPS 35380
2001 09 19.21792 23 22 51.99 -02 40 10.6   699 – Lowell Observatory-LONEOS MPS 35380
2001 09 20.24939 23 22 03.82 -02 45 10.5 17.0   704 – Lincoln Laboratory ETS, New Mexico MPS 35380
2001 09 20.26355 23 22 03.15 -02 45 14.8 17.5   704 – Lincoln Laboratory ETS, New Mexico MPS 35380
2001 09 20.27770 23 22 02.46 -02 45 18.6 18.2   704 – Lincoln Laboratory ETS, New Mexico MPS 35380
2001 09 20.29184 23 22 01.79 -02 45 22.9 18.1   704 – Lincoln Laboratory ETS, New Mexico MPS 35380
2001 09 20.30598 23 22 01.10 -02 45 27.2 18.0   704 – Lincoln Laboratory ETS, New Mexico MPS 35380
2001 09 22.25357 23 20 31.40 -02 54 47.8 17.8   704 – Lincoln Laboratory ETS, New Mexico MPS 35380
2001 09 22.26774 23 20 30.72 -02 54 51.9 18.0   704 – Lincoln Laboratory ETS, New Mexico MPS 35380
2001 09 22.28191 23 20 30.05 -02 54 55.9 17.9   704 – Lincoln Laboratory ETS, New Mexico MPS 35380
